User: anonymous   Login
Location: Asheville, NC
(35.6000°N, 82.5500°W)
Time: 19:51:35
(UTC-04:00)
Language:

AO-91 - Orbit

View from above orbital plane
View from above orbital plane
View from above satellite
View from above satellite

Ground track
Ground track

The orbit data is extracted from the following two-line orbital elements,

1 43017U 17073E   18170.58210688 +.00000338 +00000-0 +32794-4 0  9991
2 43017 097.7074 101.6130 0258213 263.8219 093.3522 14.78087883031467
Epoch (UTC): 19 June 2018 13:58:14
Eccentricity: 0.0258213
inclination: 97.7074°
perigee height: 454 km
apogee height: 816 km
right ascension of ascending node: 101.6130°
argument of perigee: 263.8219°
revolutions per day: 14.78087883
mean anomaly at epoch: 93.3522°
orbit number at epoch: 3146

The dashed part of the orbit path shows where the satellite is in the earth's shadow,  

DLR